This is the latest recevied weather packets stored in our database for station/object K1TTC. If no packets are shown the sender has not sent any weather packets the latest 1 day(s).
| Time | Temp. | Humidity | Pressure | Rain* | Wind** | Luminosity | Snow |
|---|---|---|---|---|---|---|---|
| 1778028817 | 21.67° C | 43% | 1009.9 hPa | 0 mm | 4.47 m/s, 239° | 0 W/m² | - |
| 1778028213 | 22.22° C | 42% | 1009.7 hPa | 0 mm | 4.02 m/s, 200° | 0 W/m² | - |
| 1778027612 | 22.22° C | 40% | 1009.4 hPa | 0 mm | 4.92 m/s, 216° | 0 W/m² | - |
| 1778027012 | 22.78° C | 39% | 1009.3 hPa | 0 mm | 4.02 m/s, 199° | 0 W/m² | - |
| 1778026411 | 22.78° C | 38% | 1009.1 hPa | 0 mm | 4.47 m/s, 203° | 0 W/m² | - |
| 1778025811 | 23.33° C | 38% | 1009 hPa | 0 mm | 3.13 m/s, 186° | 0 W/m² | - |
| 1778025302 | 23.33° C | 37% | 1008.7 hPa | 0 mm | 3.13 m/s, 228° | 0 W/m² | - |
| 1778024682 | 23.89° C | 37% | 1008.3 hPa | 0 mm | 3.13 m/s, 230° | 5 W/m² | - |
| 1778024012 | 23.89° C | 37% | 1008.2 hPa | 0 mm | 3.13 m/s, 229° | 12 W/m² | - |
| 1778023411 | 24.44° C | 36% | 1008.3 hPa | 0 mm | 2.68 m/s, 159° | 21 W/m² | - |
| 1778022810 | 24.44° C | 35% | 1008.1 hPa | 0 mm | 3.13 m/s, 221° | 25 W/m² | - |
| 1778022212 | 25° C | 34% | 1007.9 hPa | 0 mm | 4.92 m/s, 209° | 33 W/m² | - |
| 1778021610 | 25° C | 33% | 1007.9 hPa | 0 mm | 4.47 m/s, 218° | 49 W/m² | - |
| 1778021011 | 25.56° C | 34% | 1007.6 hPa | 0 mm | 4.02 m/s, 164° | 63 W/m² | - |
| 1778020415 | 25.56° C | 34% | 1007.4 hPa | 0 mm | 4.92 m/s, 217° | 72 W/m² | - |
| 1778019917 | 25.56° C | 34% | 1007.1 hPa | 0 mm | 4.47 m/s, 206° | 104 W/m² | - |
| 1778019211 | 26.11° C | 32% | 1006.8 hPa | 0 mm | 4.92 m/s, 175° | 139 W/m² | - |
| 1778018610 | 26.11° C | 31% | 1006.7 hPa | 0 mm | 6.71 m/s, 198° | 111 W/m² | - |
| 1778018011 | 26.67° C | 30% | 1006.8 hPa | 0 mm | 5.81 m/s, 194° | 95 W/m² | - |
| 1778017410 | 26.67° C | 31% | 1006.7 hPa | 0 mm | 5.36 m/s, 161° | 105 W/m² | - |
| 1778016811 | 27.22° C | 29% | 1006.8 hPa | 0 mm | 5.36 m/s, 184° | 185 W/m² | - |
| 1778016210 | 27.22° C | 29% | 1006.6 hPa | 0 mm | 5.36 m/s, 185° | 174 W/m² | - |
| 1778015611 | 27.78° C | 28% | 1006.4 hPa | 0 mm | 4.92 m/s, 194° | 123 W/m² | - |
| 1778015011 | 27.78° C | 28% | 1006.3 hPa | 0 mm | 4.92 m/s, 230° | 132 W/m² | - |
| 1778014412 | 27.78° C | 28% | 1006.3 hPa | 0 mm | 5.36 m/s, 162° | 149 W/m² | - |
* Rain latest hour (hover to see other rain measurements)
** Current wind speed in m/s (hover to see current wind gust speed)